CHINASAT 9B

Last updated on Mon Jun 22 2026 00:03:07 GMT+0000 (Coordinated Universal Time)

1 49125U 21080A 26172.55273683 -.00000314 00000+0 00000+0 0 9996 2 49125 0.0330 262.4533 0002119 209.8830 97.7954 1.00273166 17697
UTC large
Height (km)
Speed (km/s)
/
Latitude / Longitude
Inclination (degrees)
Orbital Period (minutes)
Azimuth
Elevation
Range (km)
Doppler Factor

Next 0 passes for location: London (51.5072 / 0.1276)

No passes found over London.
CHINASAT 9B